Location: Berkeley
(37.8716°N, 122.2727°W)
Time: 20:09:20
(UTC-07:00)

Envisat - Pass Details

Date: 14 May 2026
Orbit: 761 x 763 km, 98.4° (Epoch: 9 June)

Event Time Altitude Azimuth Distance (km) Brightness Sun altitude
Rises 04:13:40 0° 6° (N) 3,230 7.0 -18.2°
Reaches altitude 10° 04:16:02 10° 1° (N) 2,300 6.1 -17.9°
Maximum altitude 04:20:52 47° 288° (WNW) 1,000 3.4 -17.2°
Enters shadow 04:23:05 29° 232° (SW) 1,376 3.7 -16.8°
